Location: Charlotte
(35.2269°N, 80.8433°W)
Time: 01:53:03
(UTC-05:00)

ISS - Visible Passes

Search period start: 10 December 2016 00:00
Search period end: 20 December 2016 00:00
Orbit: 401 x 410 km, 51.6° (Epoch: 10 December)

Date Brightness Start Highest point End Pass type
(mag) Time Alt. Az. Time Alt. Az. Time Alt. Az.
15 Dec -1.1 18:38:57 10° NNW 18:40:01 15° N 18:40:01 15° N visible
16 Dec -1.1 17:47:41 10° N 17:49:04 12° NNE 17:50:26 10° NE visible
16 Dec -0.5 19:22:42 10° NW 19:23:18 14° NW 19:23:18 14° NW visible
17 Dec -2.8 18:30:46 10° NNW 18:33:54 39° NE 18:34:09 38° NE visible
18 Dec -1.9 17:39:02 10° NNW 17:41:42 22° NNE 17:44:21 10° E visible
18 Dec -1.6 19:15:13 10° WNW 19:18:06 32° SW 19:18:06 32° SW visible
19 Dec -3.2 18:22:56 10° NW 18:26:13 74° SW 18:29:29 10° SE visible
